This is the latest recevied weather packets stored in our database for station/object KQ4UWH. If no packets are shown the sender has not sent any weather packets the latest 10 day(s).
| Time | Temp. | Humidity | Pressure | Rain* | Wind** | Luminosity | Snow |
|---|---|---|---|---|---|---|---|
| 1777489511 | 25.56° C | 65% | 1239.7 hPa | 0 mm | - | 244 W/m² | - |
| 1777489207 | 25.56° C | 66% | 1239.7 hPa | 0 mm | - | 225 W/m² | - |
| 1777488904 | 26.11° C | 64% | 1239.7 hPa | 0 mm | - | 199 W/m² | - |
| 1777488601 | 26.11° C | 64% | 1239.7 hPa | 0 mm | - | 223 W/m² | - |
| 1777488299 | 26.11° C | 63% | 1239.7 hPa | 0 mm | - | 265 W/m² | - |
| 1777487997 | 26.11° C | 64% | 1239.7 hPa | 0 mm | - | 324 W/m² | - |
| 1777487694 | 26.11° C | 64% | 1239.7 hPa | 0 mm | - | 231 W/m² | - |
| 1777487391 | 26.11° C | 63% | 1239.7 hPa | 0 mm | - | 180 W/m² | - |
| 1777487089 | 26.11° C | 62% | 1239.7 hPa | 0 mm | - | 472 W/m² | - |
| 1777486784 | 26.67° C | 62% | 1239.7 hPa | 0 mm | - | 267 W/m² | - |
| 1777486483 | 26.11° C | 63% | 1239.7 hPa | 0 mm | - | 826 W/m² | - |
| 1777486180 | 26.67° C | 62% | 1239.7 hPa | 0 mm | - | 199 W/m² | - |
| 1777485877 | 26.11° C | 63% | 1239.7 hPa | 0 mm | - | 558 W/m² | - |
| 1777485572 | 26.67° C | 63% | 1239.7 hPa | 0 mm | - | 179 W/m² | - |
| 1777485269 | 26.67° C | 61% | 1239.7 hPa | 0 mm | - | 597 W/m² | - |
| 1777484965 | 26.67° C | 62% | 1239.7 hPa | 0 mm | - | 739 W/m² | - |
| 1777484662 | 26.11° C | 64% | 1239.7 hPa | 0 mm | - | 224 W/m² | - |
| 1777484359 | 26.11° C | 62% | 1239.7 hPa | 0 mm | - | 828 W/m² | - |
| 1777484054 | 26.11° C | 61% | 1239.7 hPa | 0 mm | - | 272 W/m² | - |
| 1777483751 | 26.11° C | 63% | 1239.7 hPa | 0 mm | - | 694 W/m² | - |
| 1777483447 | 26.67° C | 61% | 1239.7 hPa | 0 mm | - | 714 W/m² | - |
| 1777483142 | 26.11° C | 63% | 1239.7 hPa | 0 mm | - | 766 W/m² | - |
| 1777482840 | 26.11° C | 63% | 1239.7 hPa | 0 mm | - | 714 W/m² | - |
| 1777482535 | 26.11° C | 63% | 1239.7 hPa | 0 mm | - | 677 W/m² | - |
| 1777482233 | 25.56° C | 68% | 1239.7 hPa | 0 mm | - | 737 W/m² | - |
* Rain latest hour (hover to see other rain measurements)
** Current wind speed in m/s (hover to see current wind gust speed)